Flag for Mexico Weather past 2 weeks in Merida, Yucatán, Mexico

Now
86 °F

Scattered clouds.


Feels Like: 85 °F
Forecast: 67 / 95 °F
Wind: 12 mph from Northeast

Location: Aerop. Internacional Merida - Yuc

Current Time: Mar 31, 2015 at 8:14:05 PM

Latest Report: Mar 31, 2015 at 4:47 PM


Visibility: 7 mi

Pressure: 29.95 "Hg

Humidity: 40%

Dew point: 59 °F

Location of MeridaLocation

Historic Weather in Merida — Graph

°F

Merida temperature yesterday

Maximum temperature yesterday: 95 °F (at 1:44 PM)
Minimum temperature yesterday: 70 °F (at 2:47 AM)
Average temperature yesterday: 79 °F

Past Weeks' High & Low Weather Summary

 TemperatureHumidityPressure
High99 °F (Mar 26, 2:52 PM)94% (Mar 25, 5:49 AM)30.20 "Hg (Mar 25, 5:49 AM)
Low70 °F (Mar 19, 5:48 AM)20% (Mar 31, 2:46 PM)29.79 "Hg (Mar 26, 2:52 PM)
Average80 °F65%30.01 "Hg
* Reported Mar 16 4:48 PM — Mar 31 4:47 PM, Merida, Weather by CustomWeather, © 2015

Note: Actual official high and low records may vary slightly from our data, if they occured in-between our weather recording intervals... More about our weather records

Advertising

Merida weather history for previous 24 hours

 ConditionsComfort  
Time TempWeatherWind HumidityBarometerVisibility
4:47 PM
Tue, Mar 31
86 °FScattered clouds.12 mph40%29.95 "Hg7 mi
3:46 PM90 °FScattered clouds.12 mph41%29.95 "Hg7 mi
2:46 PM95 °FPassing clouds.6 mph20%29.97 "Hg7 mi
1:48 PM93 °FScattered clouds.9 mph21%29.99 "Hg7 mi
12:49 PM91 °FPassing clouds.8 mph28%30.03 "Hg7 mi
11:45 AM90 °FPassing clouds.12 mph33%30.08 "Hg7 mi
10:47 AM86 °FPassing clouds.7 mph40%30.10 "Hg7 mi
9:49 AM84 °FPassing clouds.14 mph48%30.12 "Hg7 mi
8:46 AM81 °FPassing clouds.14 mph58%30.08 "Hg7 mi
7:47 AM75 °FSunny.13 mph65%30.12 "Hg7 mi
6:47 AM72 °FSunny.6 mph73%30.10 "Hg7 mi
5:48 AM70 °FClear.7 mph78%30.07 "Hg7 mi
2:47 AM72 °FClear.6 mph73%30.08 "Hg7 mi
1:45 AM73 °FPassing clouds.9 mph69%30.09 "Hg7 mi
12:44 AM75 °FPassing clouds.12 mph65%30.11 "Hg7 mi
11:48 PM
Mon, Mar 30
75 °FPassing clouds.12 mph65%30.11 "Hg7 mi
10:44 PM75 °FPassing clouds.7 mph69%30.13 "Hg7 mi
9:44 PM77 °FClear.7 mph65%30.13 "Hg7 mi
8:47 PM79 °FPassing clouds.8 mph65%30.11 "Hg7 mi
Weather by CustomWeather, © 2015

See weather overviewHow to use our weather pages